Find Starlink 31438

NORAD ID: 59234 Int'l Des: 2024-049 Owner: SPXS Country: US Constellation: starlink operational
LEOCIRCULAR

リアルタイム位置

3D地球を読み込み中...

Starlink 31438について

説明を読み込み中...

次回通過

Passes for default location (London). Set your location on the main map for personalized predictions.

高度履歴

Loading altitude history...

軌道要素

1 59234U 24049D 26133.03204955 -.00000256 00000-0 22421-6 0 9996
2 59234 43.0023 129.1603 0001087 274.8439 85.2288 15.27574811122360
Epoch: May 13, 2026 • Age: 8 hours

現在のステータス

高度 486.5 km
速度 7.62 km/s
衛星直下点 -18.32°S, 108.1°E
打ち上げ日 Mar 16, 2024
運用期間 2.1 years
タイプ internet

技術仕様

分類 Payload
質量 730.00 kg
乾燥質量 700.00 kg
総質量 730.00 kg
長さ 0.30 m
直径 4.10 m
スパン 29.00 m
形状 Box + pan
製造者 SPXS
バスタイプ Starlink V2M
フェーズステータス In Orbit
所有者/国 SPXS/US

Most Searched